Retour au catalogue

SKYMED 3

ActifScienceSSO
NORAD 33412·PAYLOAD·🇮🇹 Italy

Lancé Oct 25, 2008 depuis Vandenberg Space Force Base

Loading…

Prochains Passages (prochaines 24 heures)

TLE

FraisSource: Space-Track

Époque: Sep 14, 2026, 15:16 UTC

1 33412U 08054A   26257.63642796  .00002297  00000-0  15571-3 0  9997
2 33412  97.8138 117.6687 0014876 327.8355  32.1963 15.07425052970412

Suivez SKYMED 3 en temps réel avec AllMySat

Download on the App Store